Terminal Aerodrome Forecast
Issued by NWS Wilmington, OH

Current Version | Previous Version | Graphics & Text | Print | Product List | Glossary On
Versions: 1 2 3 4 5 6 7 8 9 10 11 12 13 14 15 16 17 18 19 20 21 22 23 24 25 26 27 28
000
FTUS41 KILN 211000 AAB
TAFILN
TAF AMD
KILN 211004Z 2110/2206 05003KT 1/4SM FG OVC001
     FM211400 VRB03KT P6SM SCT025
     FM211600 08006KT P6SM SCT035
     FM220100 VRB03KT 4SM BR SKC=

USA.gov is the U.S. government's official web portal to all federal, state and local government web resources and services.